Regional Weather Roundup
Issued by NWS

Home | Current Version | Previous Version | Graphics & Text | Print | Product List | Glossary Off
Versions: 1 2 3 4 5 6 7 8 9 10 11 12 13 14 15 16 17 18 19 20 21 22 23 24 25 26 27 28 29 30 31 32 33 34 35 36 37 38 39 40 41 42 43 44 45 46 47 48 49 50

000
ASUS43 KTOP 221759
RWRKS

WEATHER ROUNDUP FOR KANSAS
NATIONAL WEATHER SERVICE GOODLAND KS
100 PM CDT MON SEP 22 2014

NOTE:  "FAIR" INDICATES FEW OR NO CLOUDS BELOW 12,000 FEET WITH NO
SIGNIFICANT WEATHER AND/OR OBSTRUCTIONS TO VISIBILITY.

KSZ001>006-013>018-027>032-041>047-221900-
NORTHWEST KANSAS

CITY           SKY/WX    TMP DP  RH WIND       PRES   REMARKS
GOODLAND       PTSUNNY   76  48  37 S25G35    30.23F
6HR MIN TEMP:  49; 6HR MAX TEMP:  76;

HAYS           MOSUNNY   73  48  40 S16       30.28F
HILL CITY      PTSUNNY   74  44  34 S17       30.27F
6HR MIN TEMP:  54; 6HR MAX TEMP:  74; 6HR PCP: TRACE;

RUSSELL        SUNNY     72  49  44 S14       30.28F
6HR MIN TEMP:  50; 6HR MAX TEMP:  72;

$$

KSZ061>065-074>080-084>089-221900-
SOUTHWEST KANSAS

CITY           SKY/WX    TMP DP  RH WIND       PRES   REMARKS
DODGE CITY     SUNNY     75  42  30 S17       30.30F
6HR MIN TEMP:  52; 6HR MAX TEMP:  75;

ELKHART          N/A     73  46  38 S22         N/A
GARDEN CITY    CLOUDY    74  41  30 S20       30.28F
6HR MIN TEMP:  51; 6HR MAX TEMP:  75; 6HR PCP: TRACE;

GREAT BEND     MOSUNNY   73  46  38 S14       30.29F
LIBERAL        PTSUNNY   73  45  35 S16G23    30.32F
PRATT          SUNNY     73  41  31 S9        30.31F
$$

KSZ066>073-081>083-090>101-221900-
SOUTHEAST KANSAS

CITY           SKY/WX    TMP DP  RH WIND       PRES   REMARKS
CHANUTE        SUNNY     71  51  49 E8        30.30F
6HR MIN TEMP:  49; 6HR MAX TEMP:  71;

COFFEYVILLE    SUNNY     72  51  47 VRB6      30.29F
6HR MIN TEMP:  50; 6HR MAX TEMP:  72;

HUTCHINSON     MOSUNNY   74  45  35 VRB6      30.31F
6HR MIN TEMP:  46; 6HR MAX TEMP:  74;

NEWTON         MOSUNNY   72  46  40 SE5       30.33F
PARSONS        SUNNY     71  51  49 E7        30.31F
6HR MIN TEMP:  47; 6HR MAX TEMP:  72;

WICHITA INTL   PTSUNNY   74  42  31 CALM      30.29F
6HR MIN TEMP:  51; 6HR MAX TEMP:  76;

WICHITA JABRA  MOSUNNY   74  44  34 VRB7      30.29F
6HR MIN TEMP:  49; 6HR MAX TEMP:  75;

WINFIELD       MOSUNNY   72  47  40 VRB7      30.31F
6HR MIN TEMP:  47; 6HR MAX TEMP:  73;

$$

KSZ007>012-019>026-033>040-048>060-102>105-221900-
NORTHEAST KANSAS

CITY           SKY/WX    TMP DP  RH WIND       PRES   REMARKS
CONCORDIA      MOSUNNY   71  51  49 S12       30.30F
6HR MIN TEMP:  44; 6HR MAX TEMP:  71;

EMPORIA        SUNNY     69  49  48 CALM      30.31F
6HR MIN TEMP:  49; 6HR MAX TEMP:  70;

LAWRENCE       SUNNY     70  48  45 SE5       30.31S
6HR MIN TEMP:  43; 6HR MAX TEMP:  71;

MANHATTAN      SUNNY     73  48  41 S7        30.30F
6HR MIN TEMP:  42; 6HR MAX TEMP:  74;

OLATHE IND     SUNNY     70  50  49 E7        30.31F
6HR MIN TEMP:  47; 6HR MAX TEMP:  70;

OLATHE EXE     SUNNY     69  51  52 CALM      30.30F
6HR MIN TEMP:  50; 6HR MAX TEMP:  70;

SALINA         MOSUNNY   72  48  42 VRB7      30.30F
6HR MIN TEMP:  51; 6HR MAX TEMP:  72;

TOPEKA BILLARD SUNNY     73  50  44 NE3       30.30F
6HR MIN TEMP:  46; 6HR MAX TEMP:  73;

TOPEKA FORBES  SUNNY     72  49  44 VRB5      30.31S
6HR MIN TEMP:  46; 6HR MAX TEMP:  72;

$$


USA.gov is the U.S. government's official web portal to all federal, state and local government web resources and services.